| time (UTC) | temp F | wind direction | speed knots | gust knots | rain 1hr in | rain 24hr in | rain mn in | humidity % | barometer mb |
| 20260503072921 | 49 | 222 | 0.0 | 0.0 | 0.47 | 4.09 | 0.17 | 93 | 1014.9 |
| 20260503071913 | 50 | 221 | 0.0 | 0.0 | 0.51 | 3.98 | 0.15 | 93 | 1014.9 |
| 20260503070920 | 51 | 221 | 0.0 | 0.0 | 0.51 | 3.78 | 0.11 | 93 | 1015.3 |
| 20260503054916 | 50 | 221 | 0.0 | 0.0 | 0.00 | 4.09 | 0.00 | 93 | 1014.8 |
| 20260503053925 | 50 | 221 | 0.0 | 0.0 | 0.00 | 4.09 | 0.00 | 93 | 1014.7 |
| 20260503052925 | 50 | 221 | 0.0 | 0.0 | 0.00 | 4.09 | 0.00 | 93 | 1014.7 |
| 20260503051919 | 50 | 221 | 0.0 | 0.0 | 0.00 | 4.09 | 0.00 | 93 | 1014.8 |
| 20260503050927 | 50 | 221 | 0.0 | 0.0 | 0.00 | 4.09 | 0.00 | 92 | 1014.8 |
| 20260503045930 | 50 | 221 | 0.0 | 0.0 | 0.00 | 4.09 | 0.00 | 92 | 1014.8 |
| 20260503044919 | 50 | 221 | 0.0 | 0.0 | 0.00 | 4.09 | 0.00 | 93 | 1014.9 |
| 20260503043912 | 50 | 221 | 0.0 | 0.0 | 0.00 | 4.09 | 0.00 | 93 | 1014.9 |
| 20260503042912 | 50 | 221 | 0.0 | 0.0 | 0.00 | 4.09 | 0.00 | 92 | 1014.9 |
| 20260503041922 | 49 | 221 | 0.0 | 0.0 | 0.00 | 4.09 | 0.00 | 92 | 1014.9 |
| 20260503040915 | 49 | 221 | 0.0 | 0.0 | 0.00 | 4.09 | 0.00 | 92 | 1015.0 |
| 20260503035916 | 49 | 221 | 0.0 | 0.0 | 0.00 | 4.09 | 0.00 | 92 | 1015.0 |
| 20260503034926 | 49 | 221 | 0.0 | 0.0 | 0.00 | 4.09 | 0.00 | 92 | 1015.2 |
| 20260503033914 | 49 | 221 | 0.0 | 0.0 | 0.00 | 4.09 | 0.00 | 92 | 1015.3 |
| 20260503032920 | 49 | 221 | 0.0 | 0.0 | 0.00 | 4.09 | 0.00 | 92 | 1015.4 |
| 20260503031929 | 49 | 221 | 0.0 | 0.0 | 0.00 | 4.09 | 0.00 | 92 | 1015.5 |
| 20260503030918 | 49 | 221 | 0.0 | 0.0 | 0.00 | 4.09 | 0.00 | 92 | 1015.4 |
| 20260503025920 | 49 | 221 | 0.0 | 0.0 | 0.00 | 4.09 | 0.00 | 92 | 1015.4 |
| 20260503024912 | 49 | 221 | 0.0 | 0.0 | 0.00 | 4.09 | 0.00 | 92 | 1015.4 |
| 20260503023920 | 50 | 221 | 0.0 | 0.0 | 0.00 | 4.09 | 0.00 | 92 | 1015.5 |
| 20260503022922 | 50 | 221 | 0.0 | 0.0 | 0.00 | 4.09 | 0.00 | 92 | 1015.7 |
| 20260503021912 | 50 | 221 | 0.0 | 0.0 | 0.00 | 4.09 | 0.00 | 92 | 1015.7 |
| 20260503020914 | 50 | 221 | 0.0 | 0.0 | 0.00 | 4.09 | 0.00 | 92 | 1015.7 |
| 20260503015916 | 50 | 221 | 0.0 | 0.0 | 0.00 | 4.09 | 0.00 | 92 | 1015.7 |
| 20260503014925 | 50 | 221 | 0.0 | 0.0 | 0.00 | 4.09 | 0.00 | 92 | 1015.8 |
| 20260503013915 | 50 | 221 | 0.0 | 0.0 | 0.00 | 4.09 | 0.00 | 92 | 1015.8 |
| 20260503012926 | 50 | 221 | 0.0 | 0.0 | 0.00 | 4.09 | 0.00 | 92 | 1015.8 |
| 20260503011914 | 50 | 221 | 0.0 | 0.0 | 0.00 | 4.09 | 0.00 | 91 | 1016.0 |
| 20260503010925 | 50 | 221 | 0.0 | 0.0 | 0.00 | 4.09 | 0.00 | 92 | 1016.0 |
| 20260503005926 | 50 | 221 | 0.0 | 0.0 | 0.00 | 4.09 | 0.00 | 91 | 1016.2 |
| 20260503004920 | 50 | 221 | 0.0 | 0.0 | 0.00 | 4.09 | 0.00 | 91 | 1016.2 |
| 20260503003930 | 50 | 221 | 0.0 | 0.0 | 0.00 | 4.09 | 0.00 | 91 | 1016.2 |
| 20260503002930 | 50 | 221 | 0.0 | 0.0 | 0.00 | 4.09 | 0.00 | 91 | 1016.2 |
| 20260503001919 | 50 | 221 | 0.0 | 0.0 | 0.00 | 4.09 | 0.00 | 91 | 1016.4 |
| 20260503000912 | 50 | 221 | 0.0 | 0.0 | 0.00 | 4.09 | 0.00 | 91 | 1016.4 |
| 20260502235915 | 50 | 221 | 0.0 | 0.0 | 0.00 | 4.09 | 0.82 | 91 | 1016.4 |
| 20260502234924 | 50 | 221 | 0.0 | 0.0 | 0.00 | 4.09 | 0.82 | 91 | 1016.8 |
| 20260502233913 | 51 | 221 | 0.0 | 0.0 | 0.00 | 4.09 | 0.82 | 90 | 1016.8 |
| 20260502232919 | 51 | 221 | 0.0 | 0.0 | 0.00 | 4.09 | 0.82 | 90 | 1016.9 |
| 20260502231929 | 51 | 221 | 0.0 | 0.0 | 0.00 | 4.09 | 0.82 | 90 | 1016.9 |
| 20260502230914 | 51 | 221 | 0.0 | 0.0 | 0.00 | 4.09 | 0.82 | 90 | 1016.9 |
| 20260502225917 | 51 | 221 | 0.0 | 0.0 | 0.00 | 4.09 | 0.82 | 90 | 1016.9 |
| 20260502224930 | 51 | 221 | 0.0 | 0.0 | 0.00 | 4.09 | 0.82 | 90 | 1016.9 |
| 20260502223919 | 51 | 221 | 0.0 | 0.0 | 0.00 | 4.09 | 0.82 | 90 | 1016.8 |
| 20260502222921 | 51 | 221 | 0.0 | 0.0 | 0.00 | 4.09 | 0.82 | 90 | 1016.8 |
| 20260502221914 | 51 | 221 | 0.0 | 0.0 | 0.00 | 4.09 | 0.82 | 90 | 1016.9 |
| 20260502220923 | 51 | 221 | 0.0 | 0.0 | 0.00 | 4.09 | 0.82 | 90 | 1017.0 |
| 20260502215925 | 51 | 221 | 0.0 | 0.0 | 0.00 | 4.09 | 0.82 | 89 | 1017.1 |
| 20260502214914 | 51 | 221 | 0.0 | 0.0 | 0.00 | 4.09 | 0.82 | 89 | 1017.2 |
| 20260502213928 | 51 | 221 | 0.0 | 0.0 | 0.00 | 4.09 | 0.82 | 89 | 1017.2 |
| 20260502212928 | 51 | 221 | 0.0 | 0.0 | 0.00 | 4.09 | 0.82 | 89 | 1017.2 |
| 20260502211958 | 51 | 221 | 0.0 | 0.0 | 0.00 | 4.09 | 0.82 | 89 | 1017.1 |
| 20260502210919 | 51 | 221 | 0.0 | 0.0 | 0.00 | 4.09 | 0.82 | 88 | 1017.1 |
| 20260502205921 | 52 | 221 | 0.0 | 0.0 | 0.00 | 4.09 | 0.82 | 88 | 1017.1 |
| 20260502204913 | 52 | 221 | 0.0 | 0.0 | 0.00 | 4.09 | 0.82 | 88 | 1016.9 |
| 20260502203920 | 53 | 221 | 0.0 | 0.0 | 0.00 | 4.09 | 0.82 | 88 | 1016.7 |
| 20260502202923 | 53 | 221 | 0.0 | 0.0 | 0.00 | 4.09 | 0.82 | 88 | 1016.5 |
| 20260502201929 | 53 | 221 | 0.0 | 0.0 | 0.00 | 4.09 | 0.82 | 88 | 1016.2 |
| 20260502200918 | 54 | 221 | 0.0 | 3.5 | 0.00 | 4.09 | 0.82 | 87 | 1016.2 |
| 20260502195920 | 54 | 219 | 0.0 | 2.6 | 0.00 | 4.09 | 0.82 | 87 | 1016.1 |
| 20260502194928 | 54 | 257 | 0.0 | 0.9 | 0.00 | 4.09 | 0.82 | 87 | 1016.0 |
| 20260502193918 | 54 | 257 | 0.0 | 0.0 | 0.00 | 4.09 | 0.82 | 87 | 1016.0 |
| 20260502192924 | 54 | 257 | 0.9 | 6.1 | 0.00 | 4.09 | 0.82 | 86 | 1016.1 |
| 20260502191914 | 54 | 257 | 0.0 | 3.5 | 0.00 | 4.09 | 0.82 | 86 | 1016.1 |
| 20260502190923 | 55 | 257 | 0.0 | 7.0 | 0.00 | 4.09 | 0.82 | 86 | 1015.8 |
| 20260502185922 | 55 | 244 | 0.0 | 1.7 | 0.00 | 4.09 | 0.82 | 86 | 1015.8 |
| 20260502184916 | 56 | 244 | 0.0 | 0.0 | 0.00 | 4.09 | 0.82 | 86 | 1015.9 |
| 20260502183924 | 56 | 245 | 0.0 | 4.3 | 0.00 | 4.09 | 0.82 | 86 | 1015.9 |
| 20260502182924 | 56 | 246 | 0.0 | 1.7 | 0.00 | 4.09 | 0.82 | 87 | 1015.9 |
| 20260502181915 | 56 | 260 | 0.9 | 6.1 | 0.00 | 4.09 | 0.82 | 87 | 1015.8 |
| 20260502180924 | 56 | 252 | 0.9 | 3.5 | 0.00 | 4.09 | 0.82 | 88 | 1016.1 |
| 20260502163925 | 54 | 258 | 0.0 | 4.3 | 0.55 | 4.09 | 0.82 | 89 | 1016.5 |
| 20260502162926 | 54 | 258 | 0.9 | 6.1 | 0.55 | 4.09 | 0.82 | 88 | 1016.5 |
| 20260502161915 | 54 | 258 | 0.0 | 7.8 | 0.55 | 4.09 | 0.82 | 87 | 1016.6 |
| 20260502160929 | 55 | 267 | 1.7 | 8.7 | 0.51 | 4.06 | 0.81 | 85 | 1016.6 |
| 20260502151914 | 59 | 274 | 2.6 | 7.8 | 0.00 | 3.54 | 0.71 | 85 | 1016.8 |
| 20260502150920 | 60 | 257 | 3.5 | 7.0 | 0.00 | 3.54 | 0.71 | 89 | 1016.9 |
| 20260502122911 | 55 | 170 | 0.0 | 2.6 | 0.47 | 3.15 | 0.63 | 93 | 1018.3 |
| 20260502120917 | 56 | 171 | 0.0 | 6.1 | 0.00 | 2.68 | 0.54 | 93 | 1018.8 |
| 20260502115916 | 55 | 165 | 0.9 | 6.1 | 0.00 | 2.68 | 0.54 | 93 | 1018.9 |
| 20260502114926 | 55 | 180 | 0.0 | 4.3 | 0.00 | 2.68 | 0.54 | 93 | 1019.0 |
| 20260502113913 | 55 | 172 | 0.9 | 5.2 | 0.00 | 2.68 | 0.54 | 93 | 1019.2 |
| 20260502112918 | 54 | 178 | 0.0 | 2.6 | 0.04 | 2.68 | 0.54 | 93 | 1019.4 |
| 20260502111926 | 54 | 169 | 0.9 | 3.5 | 0.08 | 2.68 | 0.54 | 93 | 1019.6 |
| 20260502110958 | 54 | 176 | 0.0 | 3.5 | 0.08 | 2.68 | 0.54 | 93 | 1019.7 |
| 20260502105929 | 54 | 176 | 0.0 | 3.5 | 0.12 | 2.68 | 0.54 | 93 | 1019.8 |
| 20260502104917 | 54 | 176 | 0.0 | 0.0 | 0.16 | 2.68 | 0.54 | 93 | 1020.0 |
| 20260502103924 | 54 | 176 | 0.0 | 2.6 | 0.12 | 2.64 | 0.53 | 93 | 1020.1 |
| 20260502101919 | 53 | 176 | 0.9 | 5.2 | 0.08 | 2.60 | 0.52 | 93 | 1020.3 |
| 20260502100924 | 53 | 171 | 0.9 | 2.6 | 0.16 | 2.60 | 0.52 | 93 | 1020.3 |
| 20260502090912 | 53 | 155 | 0.0 | 1.7 | 1.02 | 2.44 | 0.49 | 92 | 1020.6 |